Regional Weather Roundup
Issued by NWS

Home | Current Version | Previous Version | Graphics & Text | Print | Product List | Glossary On
Versions: 1 2 3 4 5 6 7 8 9 10 11 12 13 14 15 16 17 18 19 20 21 22 23 24 25 26 27 28 29 30 31 32 33 34 35 36 37 38 39 40 41 42 43 44 45 46 47 48 49 50
000
ASUS45 KTFX 262119
RWRMT
MONTANA HOURLY WEATHER ROUNDUP
NATIONAL WEATHER SERVICE GREAT FALLS MT
219 PM MST THU FEB 26 2015

NOTE: "FAIR" INDICATES FEW OR NO CLOUDS BELOW 12000 FEET WITH NO
SIGNIFICANT WEATHER AND/OR OBSTRUCTIONS TO VISIBILITY.

* THESE STATIONS ARE NOT UNDER NWS QUALITY CONTROL. THEY DO NOT
   REPORT WEATHER SUCH AS PRECIPITATION OR FOG.

MTZ001>007-043-262200-
WEST OF THE DIVIDE
CITY           SKY/WX    TMP DP  RH WIND       PRES   REMARKS
KALISPELL      SUNNY     36  14  40 VRB5      30.11F WCI  32
MISSOULA       SUNNY     36  16  44 SE14      30.10F WCI  27
BUTTE          PTCLDY    21  12  68 S17       30.02F WCI   7
MULLAN PASS    CLOUDY    28  18  66 CALM      29.96F
* ANACONDA     PTCLDY    19  16  88 N5         N/A   WCI  12
* ESSEX        N/A       28  10  47 SE6G11     N/A   WCI  21
* EUREKA APT   PTCLDY    39  14  36 SE3       30.10F
* HAMILTON APT PTCLDY    37  18  46 N9        30.04F WCI  30
* LIBBY APT    SUNNY     41  19  41 W5        30.08F
* LINCOLN      N/A       26   7  44 NE8G16     N/A   WCI  18
* LOOKOUT PASS N/A       35  18  50 NE1        N/A
* POLSON       N/A       32  18  56 NE2G7      N/A
* RONAN APT    SUNNY     34  23  64 N/A        N/A
* SEELEY LAKE  N/A       32  11  41 N3         N/A
* THOMP F APT  SUNNY     31  10  41 N5G17      N/A   WCI  26
$$

MTZ008-052>055-262200-
SOUTHWEST MONTANA
CITY           SKY/WX    TMP DP  RH WIND       PRES   REMARKS
BOZEMAN        PTSUNNY   19  10  68 CALM      30.14F
DILLON         PTCLDY    25  12  58 NE12      30.03F WCI  14
* W YELLOWSTON SUNNY     30   6  36 N3G9       N/A
* THREE FORKS  PTCLDY    21  12  68 N/A        N/A
* BOULDER HILL N/A       15   5  64 N6         N/A   WCI   6
* MONIDA PASS  N/A       22  11  62 NW10G16    N/A   WCI  11
* RAYNOLDS PAS N/A       10   9  96 N11        N/A   WCI  -4
* WHITEHALL    N/A       23   9  55 E12G20     N/A   WCI  11
* WISE RIVER   N/A       27  11  51 SE14G21    N/A   WCI  16
$$

MTZ009>010-012-014-046-048-049-054-262200-
EAST SLOPES AND CENTRAL MONTANA
CITY           SKY/WX    TMP DP  RH WIND       PRES   REMARKS
CUT BANK       CLOUDY    10   7  88 SE16      30.21F WCI  -7
GREAT FALLS    CLOUDY    14   9  80 E7        30.24F WCI   4
HELENA         SUNNY     25   9  50 VRB3      30.17F
MALMSTROM AFB  PTSUNNY   12   7  80 E3        30.27F
* CONRAD       SUNNY     12   3  67 E10G16     N/A   WCI  -1
* DEARBORN     N/A       15   7  70 VRB7G12    N/A   WCI   5
* EAST GLACIER N/A        6   3  87 SE4        N/A
* MONARCH      N/A       12   0  58 E8         N/A
* PENDROY      N/A       10   6  84 S14        N/A   WCI  -6
* ROGERS PASS  N/A       17   6  62 SW1        N/A
* SWEET GRASS  N/A       12   7  80 S16G26     N/A   WCI  -5
* WHITE SULPH  N/A       21   3  45 N3G8       N/A
$$

MTZ011-013-016-021-035-040-045-047-050-051-262200-
NORTH CENTRAL MONTANA
CITY           SKY/WX    TMP DP  RH WIND       PRES   REMARKS
HAVRE          SUNNY     18   3  52 NE10      30.37F WCI   6
LEWISTOWN      SUNNY     12   3  67 E12       30.24F WCI  -2
* N BAR RANCH  PTSUNNY    9   0  66 SE6G14    30.25F WCI  -1
* CHINOOK      SUNNY     12  -2  53 E15G20    30.42F WCI  -4
* FORT BENTON  SUNNY     16   7  67 E10       30.34F WCI   4
* CHESTER      N/A       13   3  64 SE7        N/A   WCI   3
* DENTON       N/A       17   3  54 E9G14      N/A   WCI   6
* GEYSER       N/A       13   4  67 E9         N/A   WCI   1
* JUDITH GAP   N/A        9   4  80 SE11       N/A   WCI  -5
* LOMA         N/A       14   5  67 E11G16     N/A   WCI   1
$$

MTZ017>020-022>027-061-062-262200-
NORTHEAST MONTANA
CITY           SKY/WX    TMP DP  RH WIND       PRES   REMARKS
GLASGOW        SUNNY     10  -9  41 VRB3      30.50F
GLENDIVE       SUNNY     12  -6  44 CALM      30.48F
JORDAN         SUNNY     12  -6  44 S6        30.45F WCI   2
SIDNEY         SUNNY     10  -6  48 CALM      30.55F
WOLF POINT     SUNNY     10  -8  43 CALM      30.54F
* BEAVER HILL  N/A        9  -7  48 N4G9       N/A
* CIRCLE       N/A       14  -2  49 N/A        N/A
* LINDSAY DVD  N/A        9  -4  55 NE1        N/A
* NAVAJO       N/A       11  -5  48 NW1        N/A
* PLENTYWOOD A SUNNY      7  -6  55 N5        30.51F WCI  -2
* POPLAR APT   SUNNY     12  -6  44 CALM      30.54F
* SACO         N/A       11  -5  48 SE1G11     N/A
* SCOBEY APT   SUNNY     12  -8  40 N/A        N/A
$$

MTZ028>042-056>058-262200-
SOUTHCENTRAL AND SOUTHEAST MONTANA
CITY           SKY/WX    TMP DP  RH WIND       PRES   REMARKS
BAKER          SUNNY     12   0  58 VRB6      30.43F WCI   2
BILLINGS       PTCLDY    12   1  61 VRB6      30.31F WCI   2
LIVINGSTON     PTCLDY    14   5  67 E16       30.17F WCI  -2
MILES CITY     SUNNY     12  -4  48 CALM      30.46F
* BIG TIMBER A PTCLDY    10   3  73 E10       30.22F WCI  -4
* FORSYTH APT  SUNNY     10   0  64 E5        30.44F WCI   1
* LAUREL APT   PTCLDY    14   0  53 NE7        N/A   WCI   4
* ROUNDUP APT  SUNNY     16  -2  45 N/A        N/A
* ALZADA       N/A        7  -5  57 NW3        N/A
* HYSHAM       N/A       11  -3  53 SE3        N/A
* LAME DEER    N/A        3  -3  76 E4         N/A
* REED POINT   N/A       14   7  73 E8         N/A   WCI   3
* ROSCOE HILL  N/A       10  -1  61 E5         N/A   WCI   1
$$

REGIONAL REPORTS...DAKOTAS
CITY           SKY/WX    TMP DP  RH WIND       PRES   REMARKS
WILLISTON      SUNNY      9  -4  55 NW6       30.55F WCI  -1
DICKINSON      SUNNY     10  -2  58 N10       30.44F WCI  -4
BEACH          SUNNY     10  -2  58 N7        30.46F WCI  -1
CROSBY         SUNNY      5  -4  66 NW9       30.55F WCI  -9
TIOGA          SUNNY      1  -4  79 NW10      30.53F WCI -15
WATFORD CITY   SUNNY      7  -4  60 N6        30.51F WCI  -4
BISMARCK       SUNNY      9  -6  50 N15G21    30.54F WCI  -8
GRAND FORKS    SUNNY      9  -4  55 NW12      30.53F WCI  -6
FARGO          SUNNY      7  -6  55 N14       30.54F WCI -10
BUFFALO SD     SUNNY     10  -6  48 N9        30.35F WCI  -3
RAPID CITY     SUNNY      9  -2  61 N15       30.39F WCI  -8
$$

REGIONAL REPORTS...WYOMING/IDAHO/WASHINGTON
CITY           SKY/WX    TMP DP  RH WIND       PRES   REMARKS
GILLETTE       SUNNY      9  -2  61 NE5       30.26F
SHERIDAN       CLOUDY    10   0  64 VRB5      30.30F WCI   1
CODY           CLOUDY    12   9  88 N10       30.14F WCI  -1
YELLOWSTONE LA PTCLDY    21   0  40 VRB3      29.89F
SALMON         CLOUDY    36  21  54 SW8       29.97F WCI  30
MULLAN PASS    CLOUDY    28  18  66 CALM      29.96S
SAND POINT     PTSUNNY   41  27  58 CALM      30.08F
SPOKANE        CLOUDY    41  30  65 CALM      30.06F
$$

REGIONAL REPORTS...ALBERTA
CITY           SKY/WX    TMP DP  RH WIND       PRES   REMARKS
CALGARY        PTCLDY    16   9  74 S16G26    30.13F WCI   1
LETHBRIDGE     LGT SNOW  18  10  71 S14G21    30.24F WCI   4
MEDICINE HAT   N/A       16   1  51 S12G18    30.38F WCI   3
EDMONTON       SNOW      12   3  67 SE14      30.23F WCI  -4
WATERTON GATE  N/A       12   5  73 NE7        N/A   WCI   1
CARDSTON       N/A       16   7  67 SE10G17    N/A   WCI   4
MILK RIVER     N/A       14   9  80 S20G25     N/A   WCI  -4
$$

REGIONAL REPORTS...SASKATCHEWAN
CITY           SKY/WX    TMP DP  RH WIND       PRES   REMARKS
SWIFT CURRENT  SUNNY      7  -2  66 S12       30.40F WCI  -9
MOOSE JAW      N/A        3  -6  66 CALM      30.55F
REGINA         N/A       -2  -9  72 W5        30.55F WCI -13
VAL MARIE      N/A       12  -6  44 S7         N/A   WCI   1
ASSINIBOIA     N/A        5 -11  47 SW3        N/A
CORONACH       N/A       10  -6  48 NE3        N/A

$$



USA.gov is the U.S. government's official web portal to all federal, state and local government web resources and services.